DW9643 Weather Reports


Display with metric or nautical units.
time (UTC)temp
F
wind
direction
speed
MPH
gust
MPH
rain 1hr
in
rain 24hr
in
rain mn
in
humidity
%
barometer
mb
20260902221605 92 200 2.0 13.0 0.00 0.00 0.00 55 1018.1
20260902220107 93 204 4.0 13.0 0.00 0.00 0.00 52 1018.2
20260902214600 93 210 4.0 13.0 0.00 0.00 0.00 51 1018.1
20260902213059 93 208 4.0 11.0 0.00 0.00 0.00 52 1018.2
20260902211607 95 165 3.0 11.0 0.00 0.00 0.00 52 1018.3
20260902204602 94 198 3.0 10.0 0.00 0.00 0.00 52 1018.4
20260902203103 94 175 7.0 14.0 0.00 0.00 0.00 54 1018.5
20260902201611 93 207 5.0 10.0 0.00 0.00 0.00 51 1018.6
20260902194606 94 170 3.0 10.0 0.00 0.00 0.00 48 1018.8
20260902193105 93 261 1.0 9.0 0.00 0.00 0.00 51 1019.1
20260902191604 94 0 1.0 15.0 0.00 0.00 0.00 50 1019.2
20260902190100 93 291 3.0 11.0 0.00 0.00 0.00 50 1019.4
20260902184602 93 209 1.0 9.0 0.00 0.00 0.00 50 1019.6
20260902183100 93 242 3.0 10.0 0.00 0.00 0.00 50 1019.7
20260902181603 93 0 2.0 13.0 0.00 0.00 0.00 49 1019.8
20260902180107 93 0 4.0 11.0 0.00 0.00 0.00 55 1019.8
20260902174605 93 203 4.0 13.0 0.00 0.00 0.00 53 1020.0
20260902173102 93 211 1.0 14.0 0.00 0.00 0.00 52 1020.0
20260902171611 92 192 2.0 8.0 0.00 0.00 0.00 54 1020.2
20260902170104 91 274 1.0 8.0 0.00 0.00 0.00 59 1020.3
20260902164604 91 0 1.0 12.0 0.00 0.00 0.00 59 1020.3
20260902163101 91 201 1.0 10.0 0.00 0.00 0.00 59 1020.4
20260902161614 91 241 2.0 7.0 0.00 0.00 0.00 57 1020.5
20260902160117 90 0 2.0 7.0 0.00 0.00 0.00 62 1020.7
20260902154601 90 279 5.0 11.0 0.00 0.00 0.00 61 1020.9
20260902153102 90 326 1.0 6.0 0.00 0.00 0.00 64 1020.9
20260902151606 88 0 0.0 4.0 0.00 0.00 0.00 67 1020.9
20260902144602 86 312 0.0 7.0 0.00 0.00 0.00 68 1020.9
20260902143106 85 282 1.0 4.0 0.00 0.00 0.00 71 1020.9
20260902141601 83 217 1.0 6.0 0.00 0.00 0.00 74 1021.1
20260902134600 80 0 0.0 7.0 0.00 0.00 0.00 77 1021.0
20260902133109 80 0 0.0 6.0 0.00 0.00 0.00 79 1021.0
20260902131602 78 0 1.0 4.0 0.00 0.00 0.00 82 1020.9
20260902124604 76 197 2.0 4.0 0.00 0.00 0.00 88 1020.9
20260902123110 74 0 0.0 0.0 0.00 0.00 0.00 90 1020.7
20260902121606 72 0 0.0 0.0 0.00 0.00 0.00 92 1020.5
20260902114604 71 0 0.0 0.0 0.00 0.00 0.00 92 1020.2
20260902113104 71 0 0.0 0.0 0.00 0.00 0.00 92 1020.1
20260902111607 71 0 0.0 0.0 0.00 0.00 0.00 92 1019.9
20260902110106 71 0 0.0 0.0 0.00 0.00 0.00 92 1019.9
20260902104616 72 0 0.0 0.0 0.00 0.00 0.00 92 1019.9
20260902103101 72 0 0.0 0.0 0.00 0.00 0.00 92 1019.8
20260902101602 72 0 0.0 0.0 0.00 0.00 0.00 92 1019.8
20260902094609 72 0 0.0 0.0 0.00 0.00 0.00 92 1019.6
20260902093105 72 0 0.0 0.0 0.00 0.00 0.00 92 1019.7
20260902091605 72 0 0.0 0.0 0.00 0.00 0.00 92 1019.6
20260902090125 72 0 0.0 0.0 0.00 0.00 0.00 92 1019.5
20260902084606 72 0 0.0 0.0 0.00 0.00 0.00 92 1019.5
20260902083111 73 0 0.0 0.0 0.00 0.00 0.00 92 1019.2
20260902081607 73 0 0.0 0.0 0.00 0.00 0.00 91 1019.2
20260902080115 73 0 0.0 0.0 0.00 0.00 0.00 91 1019.1
20260902074600 73 0 0.0 0.0 0.00 0.00 0.00 91 1018.9
20260902073100 73 0 0.0 0.0 0.00 0.00 0.00 91 1019.1
20260902071603 73 0 0.0 0.0 0.00 0.00 0.00 91 1019.0
20260902070108 73 0 0.0 0.0 0.00 0.00 0.00 91 1019.0
20260902064603 73 0 0.0 0.0 0.00 0.00 0.00 90 1018.9
20260902063106 73 0 0.0 0.0 0.00 0.00 0.00 90 1019.1
20260902061613 74 0 0.0 0.0 0.00 0.00 0.00 90 1019.1
20260902060105 74 0 0.0 0.0 0.00 0.00 0.00 90 1019.2
20260902054609 74 0 0.0 0.0 0.00 0.00 0.00 90 1019.2
20260902053102 74 0 0.0 0.0 0.00 0.00 0.00 91 1019.1
20260902051607 74 0 0.0 0.0 0.00 0.00 0.00 90 1019.1
20260902044605 75 0 0.0 0.0 0.00 0.00 0.00 91 1019.2
20260902043106 75 0 0.0 0.0 0.00 0.00 0.00 91 1019.1
20260902041605 74 0 0.0 0.0 0.00 0.00 0.00 90 1019.3
20260902040106 74 0 0.0 0.0 0.00 0.00 0.00 90 1019.3
20260902034602 75 0 0.0 0.0 0.00 0.00 0.00 90 1019.3
20260902033115 75 0 0.0 0.0 0.00 0.00 0.00 90 1019.2
20260902031603 75 0 0.0 0.0 0.00 0.00 0.00 89 1019.3
20260902030103 76 0 0.0 0.0 0.00 0.00 0.00 89 1019.2
20260902024602 76 0 0.0 0.0 0.00 0.00 0.00 89 1019.3
20260902023106 77 0 0.0 0.0 0.00 0.00 0.00 89 1019.4
20260902021609 77 0 0.0 0.0 0.00 0.00 0.00 87 1019.3
20260902020105 78 0 0.0 0.0 0.00 0.00 0.00 86 1019.2
20260902014603 79 0 0.0 0.0 0.00 0.00 0.00 83 1019.1
20260902013059 80 0 0.0 0.0 0.00 0.00 0.00 81 1018.9
20260902011601 81 0 0.0 0.0 0.00 0.00 0.00 78 1018.8
20260902010105 82 0 0.0 0.0 0.00 0.00 0.00 75 1018.7
20260902004604 83 0 0.0 0.0 0.00 0.00 0.00 73 1018.6
20260902003104 85 0 0.0 0.0 0.00 0.00 0.00 70 1018.7
20260902001603 86 0 0.0 1.0 0.00 0.00 0.00 66 1018.7
20260902000103 88 0 0.0 2.0 0.00 0.00 0.00 63 1018.8
20260901234613 89 202 1.0 4.0 0.00 0.00 0.00 60 1018.8
20260901233110 89 205 2.0 8.0 0.00 0.00 0.00 58 1018.9
20260901231609 90 192 5.0 9.0 0.00 0.00 0.00 56 1019.0
20260901230103 91 209 4.0 11.0 0.00 0.00 0.00 55 1018.9
20260901224605 91 197 5.0 10.0 0.00 0.00 0.00 55 1018.9
20260901223103 92 184 7.0 11.0 0.00 0.00 0.00 54 1018.8